Wind_Speed
12 4 7 10 9 8 8 5 5 4 2 4 2 13 21 27 24 24 26 27 28 29 27 27 22 21 24 25 28 26 22 20 15 16 17 16 11 10 8 6 6 7 10 13
2 7 12 9 11 6 12 8 5 5 7 4 7 11 17 26 29 32 32 32 34 33 30 30 28 24 25 29 29 28 27 23 21 19 19 16 13 12 12 9 7 8 11 12
8 8 6 8 5 6 1 4 4 6 4 5 10 3 14 19 25 26 29 33 34 35 35 34 32 30 27 32 32 31 31 27 25 21 19 18 18 16 15 11 9 8 11 13
7 12 11 9 12 10 6 9 9 7 2 4 8 4 12 17 19 23 29 31 35 36 35 33 33 33 33 33 32 33 34 30 28 25 25 23 20 20 16 13 13 10 5 8
10 10 12 14 11 21 16 8 15 15 10 2 5 4 6 10 15 19 28 33 35 37 36 35 35 31 30 31 34 34 33 33 31 30 28 27 23 21 16 15 13 12 10 11
13 11 10 14 12 17 7 8 15 6 4 7 16 6 4 12 21 22 29 35 36 38 39 35 32 29 29 29 30 33 33 30 31 30 28 28 26 23 20 17 15 14 12 13
5 13 14 7 7 6 14 13 4 3 2 7 9 4 9 23 16 24 28 36 37 42 41 38 35 34 32 34 32 30 30 30 29 28 28 28 26 24 24 22 19 15 15 15
10 9 19 7 11 9 8 19 6 7 5 5 6 7 10 27 31 37 43 49 42 42 43 39 36 33 33 33 34 32 32 30 28 28 26 24 23 23 22 21 19 17 14 16
8 9 6 13 12 10 8 3 8 7 2 3 4 6 6 17 20 27 31 33 37 44 46 43 39 34 33 33 33 32 31 28 27 26 24 23 21 22 19 18 21 20 17 17
5 2 7 7 9 10 8 5 3 3 3 2 5 5 4 10 20 20 23 35 39 44 47 44 40 37 35 35 34 33 30 27 25 24 23 21 20 20 18 17 16 17 17 17
6 4 7 5 8 15 1 3 4 6 5 6 2 6 8 17 19 23 29 41 41 48 50 47 42 38 36 34 34 33 32 29 26 24 22 22 21 20 18 17 14 16 18 18
11 5 7 12 3 9 9 12 8 5 4 2 5 6 6 14 15 27 34 40 45 53 53 47 44 41 39 37 35 34 32 31 29 26 25 22 19 19 17 14 14 15 13 13
12 8 1 6 7 4 6 6 6 6 4 6 5 7 3 7 15 35 36 40 44 47 47 50 47 46 45 42 40 37 34 32 30 28 27 24 20 17 16 14 14 12 14 14
23 5 17 10 8 5 4 7 7 8 5 6 7 9 13 6 12 15 34 43 42 44 48 51 51 50 46 45 43 40 36 30 28 28 28 26 21 17 17 13 15 17 15 13
17 16 9 21 15 6 5 8 9 7 7 7 9 8 12 6 11 23 40 39 39 39 41 50 55 53 51 47 45 43 39 33 30 30 29 28 22 18 17 16 17 17 14 14
9 10 10 16 11 6 11 10 17 12 6 8 8 8 8 11 12 18 34 39 38 43 51 56 57 54 53 50 47 44 40 38 35 35 33 29 24 20 21 23 21 18 15 15
6 17 9 16 15 11 7 8 13 13 13 13 11 12 5 6 9 26 29 35 41 47 54 55 56 56 54 49 48 45 41 38 39 38 34 31 26 25 25 24 20 16 16 14
7 19 9 12 6 12 9 8 10 21 21 9 7 8 10 16 28 26 31 37 38 41 45 53 52 53 52 50 46 44 42 41 41 38 35 32 28 27 26 23 18 16 15 11
17 8 4 9 13 3 5 5 7 9 15 9 12 8 13 22 11 14 31 36 37 35 31 30 33 40 48 47 43 44 43 42 40 37 35 31 30 28 25 21 18 17 14 11
10 19 7 5 14 15 8 6 7 6 4 5 12 10 11 11 5 6 36 44 40 37 33 34 37 40 42 42 41 42 43 40 38 36 33 31 30 26 24 19 19 15 13 11
5 12 16 6 10 5 7 9 9 7 8 8 15 24 18 7 12 18 26 38 42 42 39 38 36 37 40 41 41 40 38 36 34 32 31 31 27 24 21 21 17 15 13 10
6 6 6 2 5 5 11 8 16 12 16 20 12 14 26 23 22 26 29 41 41 40 39 38 40 39 40 41 37 34 34 33 32 31 31 28 25 24 22 19 16 15 12 11
2 6 7 8 7 7 15 14 9 3 12 11 17 19 28 26 24 24 33 36 36 38 38 38 38 39 39 37 33 30 32 33 33 30 27 25 26 24 21 18 16 16 14 14
8 5 4 5 3 4 21 16 10 10 3 9 22 22 29 27 26 26 27 30 33 38 39 40 40 39 38 36 32 23 30 33 31 27 26 28 27 24 19 18 16 16 15 15
4 10 7 1 2 14 17 16 8 8 7 4 20 28 28 30 32 32 35 36 38 39 41 42 42 40 38 36 32 28 29 30 30 26 29 29 27 23 23 20 17 14 12 13
4 4 4 4 8 9 5 10 10 6 4 11 18 22 25 25 28 32 37 39 40 40 41 41 42 40 37 34 33 30 28 24 27 29 31 30 28 27 23 19 17 17 14 14
Wind_Direction
267 129 208 194 208 178 147 213 149 279 210 129 200 151 175 183 183 187 185 188 197 203 206 207 207 203 197 191 193 201 203 205 206 210 211 213 213 204 192 220 261 284 288 311
323 219 216 192 211 198 179 187 212 216 250 102 122 170 187 180 195 192 190 190 199 205 207 206 208 206 204 197 202 207 212 214 218 226 219 219 220 218 219 238 264 292 300 306
189 233 171 184 145 214 184 192 202 196 126 137 127 196 197 203 197 200 201 200 200 202 206 210 208 205 208 207 206 206 213 217 224 230 230 224 224 234 239 243 256 272 293 280
225 234 228 209 170 172 221 224 230 249 104 246 151 245 209 198 200 199 204 205 206 204 209 208 207 207 207 205 206 211 213 219 226 236 241 239 239 245 253 257 261 239 275 299
225 181 209 230 201 181 222 199 220 235 235 20 209 134 249 157 204 203 202 205 207 205 207 207 206 205 204 206 209 212 218 224 227 236 241 241 243 246 252 254 245 242 263 281
225 247 200 220 224 187 172 193 247 267 175 202 207 151 260 191 201 197 199 202 202 201 207 207 207 206 205 207 211 215 219 220 226 234 240 238 241 243 246 248 253 253 254 268
241 246 254 221 203 159 203 196 240 234 168 216 167 141 224 209 195 191 188 198 200 200 204 206 206 206 209 208 208 211 215 221 225 232 237 237 239 243 245 247 252 252 248 260
195 239 227 208 190 181 183 217 181 224 212 258 141 212 247 193 185 190 192 192 195 195 202 206 208 208 209 210 211 214 218 221 224 229 231 233 237 238 239 239 239 244 252 262
168 232 249 221 229 143 229 191 197 138 36 51 246 300 336 167 179 184 187 186 188 194 199 204 206 210 212 214 216 216 220 221 223 226 229 231 232 232 234 238 241 246 258 254
216 217 236 254 198 225 164 218 236 20 134 222 314 298 203 175 180 185 181 190 192 195 201 203 204 208 210 211 215 219 220 219 220 223 225 229 230 229 229 232 237 239 242 252
170 104 262 253 198 220 166 219 37 118 135 164 206 273 201 186 187 181 189 193 190 194 202 205 204 207 210 211 214 216 219 217 219 222 223 226 230 232 228 232 238 240 247 260
191 165 233 228 242 201 181 200 167 127 230 152 164 260 268 176 181 197 191 193 193 197 202 205 206 207 210 211 214 216 219 219 220 222 226 228 231 231 226 222 217 229 241 253
180 194 32 325 305 285 187 188 150 117 97 186 152 259 126 235 187 194 188 194 195 197 198 205 208 210 210 209 212 214 218 220 221 221 224 225 227 218 207 209 222 236 242 237
184 161 207 202 223 156 175 194 168 138 136 164 208 270 291 259 189 176 189 192 194 194 197 203 210 213 214 212 212 214 217 217 218 220 222 223 219 209 208 218 230 235 234 251
179 209 179 223 236 239 210 188 190 169 176 161 237 211 260 237 205 175 191 189 191 192 195 202 211 215 216 216 216 217 220 216 214 216 219 218 214 208 211 208 220 226 239 262
185 203 164 220 224 213 222 236 203 196 162 199 161 233 217 278 191 152 179 184 185 191 198 206 212 215 217 217 219 218 221 221 218 218 219 214 209 207 209 211 216 234 247 253
224 199 163 216 214 238 259 215 222 212 204 184 209 220 155 194 267 167 171 182 187 195 201 205 210 215 219 219 221 219 219 223 221 220 215 208 205 206 209 213 215 229 241 241
264 204 178 205 99 225 241 206 219 220 212 199 201 199 183 213 214 219 193 177 180 192 200 208 212 216 219 219 220 218 220 221 220 215 208 203 205 208 208 209 219 222 224 236
200 204 150 173 201 268 216 221 178 166 230 206 200 195 205 206 184 197 190 195 191 187 191 198 201 211 214 217 215 214 217 217 214 208 203 202 206 206 207 210 213 210 221 236
185 192 168 146 212 211 214 206 153 89 275 252 210 182 196 160 145 243 200 199 198 193 196 194 191 196 204 204 209 211 210 207 203 199 200 204 203 202 206 209 207 211 220 230
105 183 191 172 206 266 228 162 128 128 232 290 242 198 186 172 203 207 218 207 198 195 192 192 194 193 195 197 200 200 201 201 199 198 200 198 195 205 202 200 206 214 222 221
148 136 171 103 133 208 159 125 185 208 244 266 284 176 189 194 199 206 206 198 194 190 192 193 190 192 193 197 194 197 200 200 199 199 197 193 200 196 194 201 208 217 212 216
110 176 169 165 204 230 122 119 109 204 233 241 240 160 145 139 146 167 181 186 188 193 194 195 196 197 194 195 193 196 199 199 194 194 199 202 194 191 196 201 209 212 206 215
316 27 102 100 309 121 106 102 91 34 312 230 210 199 168 165 164 162 165 176 184 193 198 199 199 193 192 194 197 196 198 193 194 201 201 193 190 188 193 202 208 210 207 215
263 337 329 67 273 101 91 95 100 73 31 208 192 180 182 178 173 174 173 178 184 189 194 198 198 195 195 195 194 194 195 193 197 205 194 190 190 194 197 199 194 196 211 223
15 341 9 277 252 122 121 87 89 93 13 110 133 149 160 176 174 178 177 181 186 190 192 192 193 195 194 193 193 188 192 200 204 195 191 190 192 195 198 197 196 198 215 232
Height
1493 1505 1514 1506 1500 1502 1503 1513 1525 1518 1508 1514 1521 1525 1530 1534 1538 1538 1538 1541 1543 1543 1545 1549 1552 1557 1561 1563 1566 1568 1571 1575 1577 1579 1582 1583 1584 1585 1585 1586 1585 1585 1585 1586
1498 1506 1492 1495 1496 1500 1504 1509 1518 1515 1506 1518 1524 1530 1527 1528 1529 1530 1531 1535 1537 1539 1543 1546 1550 1554 1557 1560 1563 1566 1569 1572 1574 1577 1580 1582 1583 1583 1584 1585 1585 1585 1584 1584
1499 1488 1487 1493 1499 1499 1500 1508 1508 1513 1508 1511 1521 1534 1532 1525 1528 1532 1531 1531 1532 1533 1538 1542 1546 1550 1554 1557 1559 1563 1566 1569 1571 1575 1578 1579 1581 1581 1582 1583 1583 1584 1584 1582
1490 1482 1484 1490 1499 1498 1509 1489 1495 1503 1519 1540 1514 1555 1528 1521 1523 1525 1527 1528 1528 1529 1533 1537 1541 1545 1549 1552 1557 1561 1564 1566 1569 1572 1573 1575 1578 1578 1578 1580 1581 1581 1581 1580
1482 1478 1482 1487 1489 1489 1490 1485 1491 1498 1512 1520 1521 1539 1519 1517 1523 1518 1519 1522 1522 1523 1526 1531 1535 1539 1543 1549 1552 1557 1560 1563 1565 1568 1570 1572 1574 1575 1576 1576 1578 1578 1578 1577
1472 1468 1471 1471 1474 1482 1480 1488 1488 1494 1515 1546 1512 1522 1526 1511 1500 1504 1509 1513 1516 1518 1522 1526 1531 1537 1540 1545 1548 1551 1554 1557 1560 1563 1566 1567 1569 1572 1574 1574 1573 1575 1576 1575
1473 1469 1463 1466 1477 1477 1484 1496 1528 1535 1540 1529 1508 1517 1506 1484 1487 1490 1498 1505 1510 1513 1517 1522 1526 1530 1535 1538 1542 1545 1548 1551 1555 1559 1561 1563 1565 1568 1569 1570 1570 1571 1572 1572
1488 1493 1462 1456 1467 1479 1484 1485 1525 1541 1536 1518 1499 1514 1484 1465 1474 1482 1488 1492 1502 1508 1512 1516 1520 1524 1528 1532 1536 1539 1542 1547 1551 1554 1556 1558 1561 1563 1564 1566 1567 1567 1568 1568
1486 1482 1450 1451 1455 1464 1473 1490 1473 1504 1506 1516 1504 1480 1459 1460 1473 1481 1489 1496 1498 1502 1506 1510 1516 1519 1523 1526 1529 1533 1538 1543 1546 1549 1552 1554 1556 1558 1560 1562 1563 1564 1565 1563
1457 1479 1454 1447 1452 1454 1466 1460 1487 1504 1522 1523 1511 1494 1492 1480 1475 1478 1486 1488 1491 1496 1500 1505 1509 1514 1518 1522 1526 1531 1535 1538 1542 1545 1548 1549 1551 1554 1557 1558 1559 1560 1560 1560
1450 1464 1462 1451 1456 1459 1468 1472 1477 1488 1503 1526 1531 1511 1465 1464 1466 1469 1474 1477 1484 1488 1493 1498 1503 1508 1512 1518 1522 1526 1530 1533 1537 1540 1543 1544 1547 1550 1553 1555 1557 1558 1558 1559
1440 1463 1474 1462 1440 1439 1450 1461 1469 1501 1501 1506 1511 1502 1445 1452 1458 1467 1467 1472 1476 1480 1486 1492 1497 1502 1507 1511 1516 1520 1524 1528 1531 1535 1537 1540 1544 1547 1550 1552 1554 1555 1557 1558
1434 1457 1482 1467 1454 1442 1447 1450 1457 1470 1482 1498 1510 1495 1444 1447 1451 1455 1460 1467 1470 1476 1484 1489 1494 1496 1499 1504 1508 1512 1516 1520 1525 1529 1532 1536 1541 1545 1548 1550 1553 1554 1555 1554
1422 1446 1450 1469 1450 1444 1450 1446 1447 1460 1490 1494 1491 1472 1450 1443 1447 1448 1452 1457 1465 1471 1477 1482 1487 1489 1493 1497 1502 1506 1511 1516 1520 1524 1529 1534 1539 1542 1546 1549 1551 1551 1551 1553
1415 1435 1441 1436 1436 1437 1440 1441 1443 1456 1460 1476 1465 1469 1449 1440 1439 1439 1443 1452 1460 1467 1473 1476 1479 1482 1487 1493 1497 1502 1506 1512 1516 1520 1524 1530 1535 1540 1543 1546 1547 1548 1550 1551
1407 1429 1432 1440 1434 1437 1442 1436 1430 1438 1448 1451 1456 1457 1436 1433 1434 1436 1441 1446 1453 1458 1463 1467 1473 1478 1482 1487 1491 1497 1501 1506 1511 1515 1520 1526 1531 1535 1538 1541 1543 1546 1548 1547
1413 1411 1435 1442 1431 1436 1454 1435 1431 1428 1427 1436 1453 1443 1432 1435 1439 1431 1438 1440 1445 1450 1456 1461 1466 1470 1476 1482 1486 1492 1497 1502 1507 1511 1517 1522 1527 1531 1534 1537 1540 1543 1545 1545
1416 1405 1419 1433 1444 1464 1424 1413 1415 1418 1416 1422 1423 1425 1428 1429 1428 1432 1430 1435 1440 1445 1450 1456 1461 1467 1472 1478 1483 1490 1494 1497 1501 1507 1513 1519 1524 1527 1531 1534 1537 1541 1541 1542
1399 1405 1429 1433 1437 1427 1418 1410 1413 1420 1420 1412 1417 1419 1419 1421 1426 1426 1428 1434 1436 1441 1445 1450 1455 1461 1467 1473 1479 1485 1489 1493 1498 1504 1510 1516 1519 1523 1527 1530 1534 1537 1538 1540
1382 1383 1404 1426 1431 1441 1416 1400 1398 1404 1436 1404 1409 1412 1415 1419 1437 1426 1423 1426 1432 1437 1443 1448 1453 1458 1463 1469 1476 1481 1485 1490 1495 1502 1508 1512 1516 1521 1524 1528 1531 1533 1535 1536
1394 1390 1399 1416 1413 1418 1394 1394 1397 1434 1435 1398 1398 1402 1407 1412 1412 1415 1419 1425 1430 1434 1440 1445 1451 1456 1461 1467 1471 1477 1484 1490 1496 1501 1505 1509 1515 1518 1522 1525 1527 1530 1532 1534
1387 1401 1412 1412 1418 1419 1378 1389 1403 1402 1394 1395 1398 1393 1398 1402 1405 1408 1412 1419 1427 1434 1440 1445 1449 1454 1459 1464 1469 1477 1483 1489 1494 1499 1503 1508 1512 1516 1519 1523 1525 1527 1530 1531
1381 1377 1389 1390 1395 1372 1372 1380 1384 1388 1391 1394 1397 1397 1395 1397 1401 1405 1407 1416 1425 1432 1438 1444 1448 1452 1458 1464 1465 1472 1480 1485 1490 1496 1502 1506 1510 1514 1517 1520 1523 1525 1527 1529
1377 1367 1374 1373 1372 1370 1370 1377 1382 1386 1388 1388 1391 1394 1394 1396 1400 1406 1413 1418 1423 1429 1435 1441 1445 1450 1456 1461 1466 1465 1475 1482 1488 1494 1499 1503 1507 1511 1515 1518 1521 1523 1526 1528
1395 1382 1382 1374 1367 1369 1371 1376 1380 1383 1387 1383 1386 1389 1391 1393 1398 1402 1409 1415 1421 1426 1432 1436 1441 1447 1453 1458 1463 1463 1472 1480 1486 1491 1495 1500 1504 1509 1512 1515 1519 1522 1525 1526
1397 1398 1399 1388 1367 1364 1372 1378 1378 1381 1386 1385 1387 1389 1390 1391 1395 1402 1407 1412 1417 1422 1428 1434 1440 1445 1451 1456 1461 1463 1471 1478 1483 1487 1492 1497 1501 1505 1509 1513 1516 1519 1522 1525